Home > Weather > Sisimiut > Past weeks

Flag for Greenland Past Weather in Sisimiut, Greenland — Yesterday and Last 2 Weeks

Now
39 °F

Chilly.


Feels Like: 34 °F
Forecast: N/A
Wind: 8 mph from Northwest

Location: Attu Kitsissut

Current Time: Jul 30, 2016 at 6:53:20 PM

Latest Report: Jul 30, 2016 at 5:00 PM


Visibility: N/A

Pressure: 30.12 "Hg

Humidity: 94%

Dew Point: 38 °F

Location of SisimiutLocation

Past Weather in Sisimiut — Graph

°F

Sisimiut Temperature Yesterday

Maximum temperature yesterday: 42 °F (at 2:00 PM)
Minimum temperature yesterday: 39 °F (at 2:00 AM)
Average temperature yesterday: 41 °F

High & Low Weather Summary for the Past Weeks

 TemperatureHumidityPressure
High52 °F (Jul 19, 7:00 AM)100% (Jul 21, 11:00 PM)30.20 "Hg (Jul 21, 11:00 PM)
Low36 °F (Jul 25, 2:00 AM)77% (Jul 16, 3:00 PM)29.58 "Hg (Jul 16, 3:00 PM)
Average42 °F93%29.97 "Hg
* Reported Jul 15 5:00 PM — Jul 30 5:00 PM, Sisimiut, Weather by CustomWeather, © 2016

Note: Actual official high and low records may vary slightly from our data, if they occured in-between our weather recording intervals... More about our weather records

Advertising

Sisimiut Weather History for the Previous 24 Hours

Scroll right to see more
 ConditionsComfort  
Time TempWeatherWind HumidityBarometerVisibility
5:00 PM
Sat, Jul 30
39 °FChilly.8 mph94%30.12 "HgN/A
4:00 PM38 °FChilly.7 mph95%30.14 "HgN/A
3:00 PM39 °FChilly.5 mph96%30.14 "HgN/A
2:00 PM39 °FChilly.3 mph97%30.15 "HgN/A
1:00 PM38 °FChilly.3 mph97%30.16 "HgN/A
12:00 PM38 °FChilly.5 mph97%30.16 "HgN/A
11:00 AM38 °FChilly.5 mph97%30.17 "HgN/A
10:00 AM36 °FChilly.6 mph97%30.17 "HgN/A
9:00 AM36 °FChilly.7 mph98%30.18 "HgN/A
8:00 AM37 °FChilly.6 mph98%30.17 "HgN/A
7:00 AM39 °FChilly.5 mph97%30.18 "HgN/A
6:00 AM38 °FChilly.2 mph97%30.18 "HgN/A
5:00 AM38 °FChilly.1 mph98%30.18 "HgN/A
4:00 AM38 °FChilly.1 mph100%30.18 "HgN/A
3:00 AM38 °FChilly.3 mph100%30.18 "HgN/A
2:00 AM38 °FChilly.3 mph100%30.18 "HgN/A
1:00 AM38 °FChilly.2 mph100%30.19 "HgN/A
12:00 AM38 °FChilly.1 mph100%30.19 "HgN/A
11:00 PM
Fri, Jul 29
39 °FChilly.3 mph100%30.19 "HgN/A
10:00 PM39 °FChilly.5 mph98%30.19 "HgN/A
9:00 PM40 °FChilly.3 mph99%30.19 "HgN/A
8:00 PM40 °FQuite cool.3 mph98%30.18 "HgN/A
7:00 PM41 °FQuite cool.3 mph98%30.18 "HgN/A
6:00 PM42 °FQuite cool.5 mph97%30.17 "HgN/A
Weather by CustomWeather, © 2016

See weather overviewHow to use our weather pages